Погода Софийский Прииск

Погода Софийский Прииск : погода сейчас, прогноз погоды и архив. Всё, что Вы хотите узнать о погоде Софийский Прииск!

Поиск расширенной информации на нашем сайте:

Другие новости

Новости СМИ2

Главная страница сайта

Новости сайта

03.07.2017

Напоминаем, что на нашем специализированном сайте Метеоцентр.Азия вы можете получить высокодетализированные автоматические прогнозы погоды по пунктам России, СНГ и мира в авиационном формате (включающие направление и скорость ветра, видимость, явления погоды, количество и форму облачности, нижнюю и верхнюю границу облачности).


Погода Софийский Прииск - сегодня

Время (UTC), дата Ветер
(°,м/с) 
Видим.   Явления Облачность Т
(°С)
Тd
(°С)
f(%) Тe
(°С)
Pmin
(гПа)
dP
(гПа)
Po
(мм)
O2
(г/м3)
Тmin Tmax R s Состояние
почвы
00 22.11.17 тихо ()   20000 м    1/0 верхняя 
[Ci sp]
-28.8 -32.3 72 -29  1015.1  -1.2    -30.7         
03 22.11.17 260 (З) 20000 м    4/0 верхняя 
[Ci fib]
-20.3 -25.5 63 -21  1009.3  -1.4             
06 22.11.17 250 (З) 20000 м    3/0 верхняя 
[Ci fib]
-17.7 -24 58 -18  1007.7  -0.3             
09 22.11.17 тихо ()   20000 м    3/0 верхняя 
[Ci fib]
-26.4 -29.1 78 -26  1013.8  1.6      -17.6       
12 22.11.17 070 (В) 20000 м    ясно 
-30.2 -33.3 74 -31  1016.4  0.6             
15 22.11.17 050 (СВ) 20000 м    ясно 
-32.2 -35.6 72 -36  1018.2  0.7             
18 22.11.17 060 (СВ) 20000 м    ясно 
-33 -36.6 70 -34  1019.2  0.5             
21 22.11.17 060 (СВ) 20000 м    ясно 
-32.9 -36.5 70 -34  1019  -0.2    -34      19  равномерный
сухой снег
100% 
00 23.11.17 070 (В) 20000 м    1/0 верхняя 
[Ci fib]
-31.5 -35.2 70 -32  1018.3  0.1    -34.9         
03 23.11.17 тихо ()   20000 м    9/3 1000 м верхняя 
[Cu Sc|Cc]
-22 -28 58 -22  1012.6  -0.7             
06 23.11.17 250 (З) 20000 м    10/1 1000 м средняя, верхняя 
[Sc|As op|Cs]
-21 -26.9 59 -21  1012.3  0.2             
09 23.11.17 тихо ()   20000 м  слаб. снег  10/0 средняя, верхняя 
[As op|Ci fib]
-26.9 -30 75 -27  1016.5  1.3      -20.1  0.0     
12 23.11.17 080 (В) 20000 м  в посл. час снег  8/0 средняя, верхняя 
[As trans|Ci fib]
-30.9 -34.2 73 -32  1018.4  -0.3             
15 23.11.17 070 (В) 20000 м    6/0 верхняя 
[Ci fib]
-32.9 -36.2 72 -34  1018.3  -0.9             
18 23.11.17 080 (В) 20000 м  слаб. снег  8/0 средняя, верхняя 
[As trans|Ci fib]
-33.9 -37.5 70 -35  1018.4  -0.5             
21 23.11.17 090 (В) 20000 м  {снег}  5/0 средняя, верхняя 
[As trans|Ci fib]
-35.7 -39.4 69 -37  1018.2  -1    -35.8    0.2  19  равномерный
сухой снег
100% 
00 24.11.17 тихо ()   20000 м  {снег}  3/0 верхняя 
[Ci sp]
-34.1 -37.9 69 -34  1017.7  0.3    -36.2         
03 24.11.17 250 (З) 20000 м    3/0 верхняя 
[Ci sp]
-26.2 -30.9 65 -27  1012.3  -1.1             
06 24.11.17 240 (ЮЗ) 20000 м    5/0 верхняя 
[Ci sp]
-24.6 -29.4 64 -25  1011.5  0.1             
09 24.11.17 160 (Ю) 20000 м  слаб. снег  10/0 средняя 
[As trans]
-29.5 -32.8 73 -30  1015.4  1.1      -23.9  0.2     
12 24.11.17 тихо ()   20000 м  {снег}  ясно 
-33.2 -36.6 72 -33  1017.7  0.4             
15 24.11.17 080 (В) 20000 м    ясно 
-36 -39.9 67 -37  1018.8  -0.4             
18 24.11.17 070 (В) 20000 м    ясно 
-38.6 -42.6 66 -40  1019.9  -0.3             
21 24.11.17 080 (В) 20000 м  слаб. снег  10/0 верхняя 
[Cs]
-38.8 -42.9 65 -40  1020    -38.8    0.2  19  равномерный
сухой снег
100% 
00 25.11.17 070 (В) 20000 м  в посл. час снег  6/0 средняя 
[Ac As]
-36.6 -40.7 66 -38  1019.2  0.4    -39         
Время (UTC), дата Ветер
(°,м/с) 
Видим.   Явления Облачность Т
(°С)
Тd
(°С)
f(%) Тe
(°С)
Pmin
(гПа)
dP
(гПа)
Po
(мм)
O2
(г/м3)
Тmin Tmax R s Состояние
почвы

Для получения пояснительной информации подведите курсор к названию столбца.

ПОГОДА Софийский Прииск - архив

Всё, что Вы хотите узнать о погоде Софийский Прииск - удобно и подробно!

Выберите нужную дату (начиная с 1 января 2015* года) и нажмите кнопку "Найти".
Будут отображены архивные сводки погоды по пункту Софийский Прииск, начиная с указанной даты.


Отображать данные в формате CSV (для использования в таблицах Excel)


Внимание! Наш архив погоды предназначен исключительно для личного некоммерческого использования в познавательных целях. Если Вам необходимы официальные справки о состоянии погоды (для производственных, юридических, коммерческих и т.п. целей), обращайтесь в органы Росгидромета.

*Примечание: данная дата относится к архиву по метеостанциям СССР (Россия, СНГ, Балтия).
Архив по метеостанциям Зарубежной Европы и Азии (кроме Китая) хранится 10 дней, по другим регионам земного шара (Китай, Африка, Америка, Австралия, Океания) - 1 день.

Софийский Прииск - район местоположения метеостанции


Название, широта, долгота, высота метеостанции:
Софийский Прииск 52.3°ш. 134°д. 902 м над ур. моря [Российская Федерация]

Дополнительная информация

В oтличие oт бoльшинства пoгoдных сайтoв мы публикуем пoдрoбную метеoинфoрмацию в детальнoм прoфессиoнальнoм фoрмате.

Характеристики температуры и влажнoсти вoздуха измеряются на высoте 2 м в тени вдали oт зданий и деревьев.
Скoрoсть ветра измеряется на высoте 10 м (на урoвне рoста челoвека скoрoсть ветра ниже в 1.5-2 раза). Если метеoстанция нахoдится в гoрoде или в лесу, тo скoрoсть ветра занижена на 2-4 м/с пo сравнению с oткрытым местoм. Скoрoсть ветра над акватoриями крупных рек и oзёр, а также на вершинах хoлмoв на 2-5 м/с выше, чем в oбычных услoвиях.
Атмoсфернoе давление в разных тoчках местнoсти мoжет значительнo oтличаться oт давления на метеoстанции, в зависимoсти oт услoвий рельефа (при пoдъёме на 10 м давление пoнижается примернo на 1 мм рт.ст.).